Weather History for KCCU - February, 2014

Change the Weather History Date:

Thursday, February 27, 2014

  Actual Average (KLXV) Record (KLXV)
Temperature  
Mean Temperature 28 °F -  
Max Temperature 32 °F 34 °F 51 °F (1988)
Min Temperature 23 °F 7 °F -14 °F (1984)
Degree Days  
Heating Degree Days 38 45  
Month to date heating degree days 1267  
Since 1 July heating degree days 7664  
Cooling Degree Days 0 0  
Month to date cooling degree days 0  
Year to date cooling degree days 0  
Moisture  
Dew Point 17 °F    
Average Humidity 69    
Maximum Humidity 80    
Minimum Humidity 54    
Precipitation  
Precipitation 0.00 in 0.03 in 0.17 in (2003)
Month to date precipitation 0.67  
Year to date precipitation 1.29  
Sea Level Pressure  
Sea Level Pressure 29.84 in    
Wind  
Wind Speed 14 mph (WSW)    
Max Wind Speed 23 mph    
Max Gust Speed 41 mph    
Visibility 5 miles    
Events Snow    
T = Trace of Precipitation, MM = Missing Value Source: NWS Daily Summary

Daily Weather History Graph

Daily Weather History Graph

Search for Another Location

Airport or City:

Trip Planner

Search our weather history database for the weather conditions in past years. The results will help you decide how hot, cold, wet, or windy it might be!

Date:

Astronomy

Feb. 27, 2014 Rise Set
Actual Time 6:40 AM MST 5:54 PM MST
Civil Twilight 6:13 AM MST 6:21 PM MST
Nautical Twilight 5:42 AM MST 6:53 PM MST
Astronomical Twilight 5:11 AM MST 7:24 PM MST
Moon 5:14 AM MST (2/27) 4:23 PM MST (2/27)
Length of Visible Light 12h 08m
Length of Day
11h 14m
Waning Crescent, 4% of the Moon is Illuminated
Feb 27
Waning Crescent
Mar 1
New
Mar 8
First Quarter
Mar 16
Full
Mar 23
Last Quarter

Hourly Weather History & Observations

Time (MST) Temp. Windchill Dew Point Humidity Pressure Visibility Wind Dir Wind Speed Gust Speed Precip Events Conditions
12:16 AM 24.8 °F 12.9 °F 10.4 °F 54% 30.02 in 10.0 mi WSW 13.8 mph 25.3 mph N/A   Overcast
12:36 AM 24.8 °F 12.9 °F 12.2 °F 59% 30.01 in 10.0 mi WSW 13.8 mph 18.4 mph N/A   Overcast
12:56 AM 23.0 °F 12.4 °F 12.2 °F 63% 30.01 in 10.0 mi SW 10.4 mph 16.1 mph N/A   Mostly Cloudy
1:16 AM 23.0 °F 11.7 °F 12.2 °F 63% 30.00 in 10.0 mi WSW 11.5 mph 20.7 mph N/A   Scattered Clouds
1:36 AM 24.8 °F 12.4 °F 14.0 °F 64% 30.00 in 10.0 mi WSW 15.0 mph 20.7 mph N/A   Mostly Cloudy
1:56 AM 24.8 °F 10.3 °F 15.8 °F 69% 29.98 in 10.0 mi WSW 20.7 mph 32.2 mph N/A   Overcast
2:16 AM 24.8 °F 11.9 °F 15.8 °F 69% 29.98 in 10.0 mi West 16.1 mph 20.7 mph N/A   Overcast
2:36 AM 23.0 °F 11.1 °F 14.0 °F 68% 29.97 in 10.0 mi WSW 12.7 mph 18.4 mph N/A   Overcast
2:56 AM 23.0 °F 11.1 °F 14.0 °F 68% 29.96 in 10.0 mi West 12.7 mph 19.6 mph N/A   Overcast
3:16 AM 24.8 °F 12.9 °F 15.8 °F 69% 29.95 in 10.0 mi WSW 13.8 mph 18.4 mph N/A   Overcast
3:36 AM 23.0 °F 9.6 °F 14.0 °F 68% 29.96 in 1.8 mi West 16.1 mph 24.2 mph N/A Snow Light Snow
3:56 AM 23.0 °F 10.1 °F 17.6 °F 80% 29.95 in 2.0 mi WSW 15.0 mph 21.9 mph N/A Snow Light Snow
4:16 AM 24.8 °F 12.4 °F 15.8 °F 69% 29.95 in 4.0 mi WSW 15.0 mph 27.6 mph N/A Snow Light Snow
4:36 AM 24.8 °F 12.9 °F 14.0 °F 64% 29.94 in 3.0 mi WSW 13.8 mph 28.8 mph N/A   Haze
4:56 AM 24.8 °F 11.5 °F 14.0 °F 64% 29.94 in 1.0 mi West 17.3 mph 34.5 mph N/A Snow Light Snow
5:16 AM 23.0 °F 9.2 °F 17.6 °F 80% 29.94 in 1.2 mi West 17.3 mph 24.2 mph N/A Snow Light Snow
5:36 AM 24.8 °F 12.4 °F 15.8 °F 69% 29.92 in 1.0 mi WSW 15.0 mph 35.7 mph N/A Snow Light Snow
5:56 AM 23.0 °F 13.9 °F 14.0 °F 68% 29.92 in 4.0 mi WNW 8.1 mph 27.6 mph N/A   Haze
6:16 AM 23.0 °F 11.7 °F 15.8 °F 74% 29.91 in 10.0 mi West 11.5 mph 17.3 mph N/A   Mostly Cloudy
6:36 AM 23.0 °F 8.7 °F 15.8 °F 74% 29.90 in 7.0 mi West 18.4 mph 23.0 mph N/A Snow Light Snow
6:56 AM 23.0 °F 7.2 °F 15.8 °F 74% 29.89 in 10.0 mi West 23.0 mph 27.6 mph N/A   Mostly Cloudy
7:16 AM 24.8 °F 12.4 °F 17.6 °F 74% 29.89 in 10.0 mi West 15.0 mph 28.8 mph N/A   Overcast
7:36 AM 23.0 °F 9.2 °F 15.8 °F 74% 29.89 in 10.0 mi West 17.3 mph 24.2 mph N/A   Overcast
7:56 AM 24.8 °F 11.1 °F 15.8 °F 69% 29.89 in 10.0 mi West 18.4 mph 25.3 mph N/A   Mostly Cloudy
8:16 AM 24.8 °F 11.5 °F 15.8 °F 69% 29.89 in 10.0 mi WSW 17.3 mph - N/A   Scattered Clouds
8:36 AM 26.6 °F 13.1 °F 14.0 °F 59% 29.88 in 4.0 mi WSW 19.6 mph 31.1 mph N/A   Haze
8:56 AM 26.6 °F 14.7 °F 14.0 °F 59% 29.89 in 7.0 mi WSW 15.0 mph 21.9 mph N/A   Scattered Clouds
9:16 AM 28.4 °F 15.4 °F 14.0 °F 55% 29.88 in 10.0 mi West 19.6 mph 25.3 mph N/A   Scattered Clouds
9:36 AM 28.4 °F 15.1 °F 14.0 °F 55% 29.87 in 10.0 mi West 20.7 mph 26.5 mph N/A   Scattered Clouds
9:56 AM 28.4 °F 18.0 °F 14.0 °F 55% 29.87 in 10.0 mi WSW 12.7 mph 28.8 mph N/A   Mostly Cloudy
10:16 AM 30.2 °F 17.8 °F 15.8 °F 55% 29.87 in 10.0 mi West 19.6 mph 28.8 mph N/A   Overcast
10:36 AM 30.2 °F 19.8 °F 17.6 °F 60% 29.86 in 10.0 mi West 13.8 mph 20.7 mph N/A   Overcast
10:56 AM 32.0 °F 24.2 °F 17.6 °F 55% 29.86 in 10.0 mi WSW 9.2 mph 18.4 mph N/A   Overcast
11:16 AM 30.2 °F 21.3 °F 17.6 °F 60% 29.86 in 10.0 mi WSW 10.4 mph 16.1 mph N/A Snow Light Snow
11:36 AM 30.2 °F 20.2 °F 17.6 °F 60% 29.84 in 2.5 mi WSW 12.7 mph 17.3 mph N/A Snow Light Snow
11:56 AM 28.4 °F 19.1 °F 19.4 °F 69% 29.84 in 1.8 mi WSW 10.4 mph 19.6 mph N/A Snow Light Snow
12:16 PM 28.4 °F 20.4 °F 19.4 °F 69% 29.82 in 2.0 mi SW 8.1 mph - N/A Snow Light Snow
12:36 PM 30.2 °F 20.8 °F 19.4 °F 64% 29.82 in 2.5 mi WSW 11.5 mph 19.6 mph N/A Snow Light Snow
12:56 PM 30.2 °F 21.9 °F 19.4 °F 64% 29.80 in 5.0 mi SW 9.2 mph 18.4 mph N/A Snow Light Snow
1:16 PM 30.2 °F 21.9 °F 21.2 °F 69% 29.79 in 3.0 mi SW 9.2 mph 21.9 mph N/A Snow Light Snow
1:36 PM 30.2 °F 18.1 °F 19.4 °F 64% 29.79 in 1.5 mi WSW 18.4 mph 25.3 mph N/A Snow Light Snow
1:56 PM 30.2 °F 18.1 °F 21.2 °F 69% 29.79 in 3.0 mi West 18.4 mph 31.1 mph N/A Snow Light Snow
2:16 PM 30.2 °F 18.5 °F 21.2 °F 69% 29.78 in 1.8 mi WSW 17.3 mph 25.3 mph N/A Snow Light Snow
2:36 PM 28.4 °F 19.1 °F 19.4 °F 69% 29.77 in 1.8 mi WSW 10.4 mph 20.7 mph N/A Snow Light Snow
2:56 PM 28.4 °F 19.7 °F 21.2 °F 74% 29.76 in 2.5 mi WSW 9.2 mph 19.6 mph N/A Snow Light Snow
3:16 PM 30.2 °F 18.1 °F 21.2 °F 69% 29.76 in 7.0 mi West 18.4 mph 23.0 mph N/A   Overcast
3:36 PM 28.4 °F 20.4 °F 21.2 °F 74% 29.75 in 0.5 mi WSW 8.1 mph 20.7 mph N/A Snow Snow
3:56 PM 28.4 °F 20.4 °F 21.2 °F 74% 29.75 in 2.0 mi WSW 8.1 mph - N/A Snow Light Snow
4:16 PM 28.4 °F 19.7 °F 23.0 °F 80% 29.75 in 1.0 mi West 9.2 mph - N/A Snow Light Snow
4:36 PM 28.4 °F 21.2 °F 21.2 °F 74% 29.74 in 1.0 mi WSW 6.9 mph 17.3 mph N/A Snow Light Snow
4:56 PM 28.4 °F 21.2 °F 21.2 °F 74% 29.74 in 4.0 mi West 6.9 mph 16.1 mph N/A Snow Light Snow
5:16 PM 28.4 °F 18.5 °F 21.2 °F 74% 29.73 in 0.8 mi West 11.5 mph - N/A Snow Light Snow
5:36 PM 26.6 °F 16.8 °F 21.2 °F 80% 29.73 in 0.5 mi West 10.4 mph - N/A Snow Snow
5:56 PM 28.4 °F 19.7 °F 23.0 °F 80% 29.73 in 0.5 mi West 9.2 mph - N/A Snow Snow
6:16 PM 26.6 °F 19.1 °F 21.2 °F 80% 29.73 in 1.2 mi WSW 6.9 mph - N/A Snow Light Snow
6:36 PM 24.8 °F 10.0 °F 19.4 °F 80% 29.74 in 0.2 mi WSW 21.9 mph 41.4 mph N/A Snow Snow
6:56 PM 24.8 °F 12.9 °F 17.6 °F 74% 29.76 in 1.0 mi WSW 13.8 mph 26.5 mph N/A Snow Light Snow
7:16 PM 24.8 °F 13.4 °F 12.2 °F 59% 29.75 in 7.0 mi SSW 12.7 mph 19.6 mph N/A   Overcast
7:36 PM 24.8 °F 13.4 °F 14.0 °F 64% 29.73 in 10.0 mi SSW 12.7 mph 18.4 mph N/A   Overcast
7:56 PM 26.6 °F 16.8 °F 12.2 °F 55% 29.73 in 7.0 mi SW 10.4 mph 21.9 mph N/A   Overcast
8:16 PM 24.8 °F 13.4 °F 14.0 °F 64% 29.72 in 10.0 mi SW 12.7 mph 19.6 mph N/A   Overcast
8:36 PM 24.8 °F 14.6 °F 14.0 °F 64% 29.72 in 7.0 mi SW 10.4 mph 19.6 mph N/A   Mostly Cloudy
8:56 PM 24.8 °F 11.1 °F 15.8 °F 69% 29.72 in 5.0 mi WSW 18.4 mph 26.5 mph N/A   Haze
9:16 PM 23.0 °F 11.7 °F 17.6 °F 80% 29.73 in 4.0 mi WSW 11.5 mph - N/A Snow Light Snow
9:36 PM 24.8 °F 14.6 °F 17.6 °F 74% 29.73 in 4.0 mi SW 10.4 mph 16.1 mph N/A Snow Light Snow
9:56 PM 24.8 °F 14.0 °F 17.6 °F 74% 29.73 in 4.0 mi SW 11.5 mph - N/A Snow Light Snow
10:16 PM 24.8 °F 17.9 °F 19.4 °F 80% 29.73 in 5.0 mi SW 5.8 mph - N/A   Haze
10:36 PM 24.8 °F 14.6 °F 17.6 °F 74% 29.73 in 2.0 mi WSW 10.4 mph 20.7 mph N/A Snow Light Snow
10:56 PM 24.8 °F 14.0 °F 19.4 °F 80% 29.73 in 1.0 mi SW 11.5 mph 16.1 mph N/A Snow Light Snow
11:16 PM 24.8 °F 13.4 °F 19.4 °F 80% 29.73 in 1.2 mi West 12.7 mph 20.7 mph N/A Snow Light Snow
11:36 PM 24.8 °F 10.0 °F 19.4 °F 80% 29.73 in 1.2 mi West 21.9 mph 27.6 mph N/A Snow Light Snow
11:56 PM 24.8 °F 11.1 °F 19.4 °F 80% 29.74 in 1.0 mi West 18.4 mph 26.5 mph N/A Snow Light Snow